Wind_Speed
25 23 22 21 21 19 19 20 20 20 18 16 15 14 13 11 8 7 6 6 6 5 4 4 4 5 6 7 7 8 8 8 9 9 8 7 7 6 6 5 4 4 4 4 4 4 4 4 4 5 5 5 5 5 5 5 5 6 6 7 8 9 10 10 10 11 12 13 13 13 13 14 15 15 15 15 16 16 15 15 15 16 17 18 19
27 27 25 23 23 22 21 21 22 21 20 18 17 16 15 13 11 10 9 8 8 7 6 5 4 5 5 6 6 7 7 8 8 8 8 8 7 6 6 5 5 5 5 5 5 5 5 5 6 6 6 7 7 8 8 8 7 7 7 7 9 10 11 11 11 12 12 13 13 13 12 12 12 13 13 14 14 14 14 14 15 16 17 17 18
28 29 28 26 25 24 23 22 23 23 22 21 20 18 17 15 13 12 11 10 10 9 9 7 6 6 5 5 5 6 6 7 7 8 8 8 7 6 6 5 5 5 5 5 5 5 5 6 6 6 7 7 8 8 9 9 9 9 9 9 10 11 12 12 12 12 13 13 12 12 11 10 10 11 12 12 12 13 14 14 16 17 18 18 18
30 30 30 29 27 26 25 24 24 24 24 23 22 21 19 18 16 14 14 13 12 11 11 10 9 8 7 6 5 5 5 5 6 7 8 8 8 7 6 5 5 5 4 4 5 5 6 6 6 6 7 7 8 8 9 9 10 10 10 10 10 10 11 11 12 12 13 13 13 13 12 12 12 12 13 13 13 14 14 15 16 17 18 17 17
33 31 31 31 30 29 29 27 25 25 25 24 24 23 22 21 19 17 16 16 14 14 13 13 12 10 9 8 7 5 4 4 5 6 7 8 8 8 7 6 5 4 4 4 4 5 5 6 6 7 7 7 7 8 8 8 9 9 9 9 9 9 10 10 10 11 12 12 13 14 14 15 15 15 15 16 16 16 16 17 17 17 17 17 16
33 31 33 34 33 32 32 29 28 26 25 25 24 24 24 24 22 21 19 18 17 16 16 15 14 13 11 10 8 7 5 5 5 6 7 8 9 9 8 6 5 4 4 4 5 5 5 5 6 7 8 8 8 8 8 8 8 8 8 9 9 9 9 10 10 10 11 12 13 14 15 16 17 18 18 18 18 18 19 18 18 18 18 17 16
36 37 38 38 37 36 35 33 31 28 26 25 25 24 25 25 24 23 22 21 20 19 18 17 16 15 14 12 10 9 7 6 7 7 8 9 9 9 9 7 5 4 4 4 4 5 5 6 6 7 7 8 8 8 7 7 7 7 7 8 8 9 9 10 10 11 11 12 13 14 15 16 17 18 18 19 19 19 20 20 20 19 18 17 17
40 43 42 41 41 40 37 35 33 30 29 27 26 25 25 25 24 23 23 22 22 21 20 19 18 18 17 14 12 11 9 8 8 9 9 10 10 10 9 8 6 4 4 3 4 4 5 5 6 7 7 8 8 8 8 7 7 8 8 8 9 9 9 10 10 11 11 12 13 14 14 15 16 17 18 19 19 20 20 21 20 19 18 17 17
37 39 40 42 44 41 38 37 35 33 31 29 28 27 26 25 25 24 24 23 23 22 22 21 21 20 19 17 15 13 12 10 10 10 11 11 11 10 10 9 8 6 5 4 4 4 4 5 5 6 7 7 8 8 8 9 9 9 9 8 9 9 9 9 9 10 10 11 12 13 14 14 15 16 18 19 20 20 20 20 20 20 19 18 17
38 37 35 37 41 40 39 38 38 36 34 31 30 29 28 27 26 25 25 24 24 23 23 23 23 22 21 19 18 16 14 12 11 12 13 13 12 11 11 11 9 8 6 5 5 5 4 4 5 5 6 7 7 8 8 9 9 9 9 9 9 8 8 8 8 8 9 10 11 12 12 13 14 15 16 18 20 21 21 21 20 20 20 20 19
44 43 39 36 36 39 41 41 40 39 36 34 32 30 29 29 28 28 27 26 25 24 24 25 24 24 23 22 20 18 16 13 13 13 14 14 14 13 12 12 11 10 8 7 6 6 5 5 5 5 5 6 7 7 7 8 8 9 9 9 9 8 8 7 7 6 7 8 9 9 10 11 12 14 15 16 18 20 21 22 22 21 21 22 22
50 47 44 41 37 36 41 44 43 40 38 35 33 31 30 29 29 30 29 28 27 26 26 26 26 26 25 24 22 20 17 14 14 15 16 15 15 15 14 13 12 12 10 9 8 8 7 6 5 5 5 5 5 6 6 6 7 8 8 8 8 8 7 7 6 5 5 6 7 7 9 10 11 12 14 15 16 18 19 21 22 23 23 23 24
53 50 46 43 39 34 35 41 45 44 40 37 35 32 31 30 30 31 31 30 29 28 28 29 28 28 27 26 24 20 18 16 15 16 17 17 17 17 16 16 14 13 12 11 10 9 8 7 6 6 5 5 5 5 5 5 6 6 6 6 7 6 6 5 4 4 4 4 4 6 7 8 10 12 13 14 15 16 18 20 21 22 22 23 24
55 53 48 44 39 35 33 36 43 46 44 39 36 34 33 32 32 31 31 31 31 32 31 31 30 29 29 27 25 22 20 18 17 17 18 19 18 19 19 18 16 14 13 12 11 10 10 9 8 7 7 6 6 5 4 3 3 3 4 4 4 4 4 4 4 4 4 3 4 4 5 6 8 10 11 12 12 13 15 17 19 20 20 21 22
55 55 51 44 39 36 36 38 44 49 46 40 37 35 34 34 33 32 32 32 33 34 33 32 32 31 30 28 26 24 22 21 19 19 20 20 20 21 21 20 17 15 14 14 13 12 11 10 9 9 8 7 7 7 6 5 4 3 2 2 2 2 1 2 4 5 5 4 4 4 5 5 6 7 8 9 10 10 12 13 15 16 17 18 19
55 55 53 47 41 37 38 42 47 49 45 39 36 34 33 34 34 33 33 33 34 35 35 34 34 33 31 29 28 27 25 23 21 21 22 23 23 23 23 20 18 17 16 15 14 13 12 11 11 10 9 8 9 9 9 8 8 7 5 4 3 2 2 2 2 3 4 5 5 5 5 5 6 6 6 7 8 8 9 10 12 13 13 14 15
55 56 56 54 49 44 43 47 49 47 43 39 36 33 33 34 34 34 33 33 34 35 35 35 35 33 32 30 30 29 27 24 23 24 24 24 25 24 23 21 19 18 18 16 15 14 13 12 12 11 10 9 10 11 11 11 11 11 10 9 8 7 5 4 4 4 4 5 6 7 7 6 6 7 7 7 7 7 7 7 8 9 9 9 10
56 56 57 58 57 54 51 52 51 45 41 41 39 38 39 39 38 37 35 34 35 36 35 34 34 34 33 32 31 30 27 25 25 26 26 26 26 25 24 22 20 20 19 17 16 15 14 13 13 12 11 12 12 13 13 14 14 14 14 12 12 12 10 8 7 7 6 6 7 8 8 8 8 8 8 8 8 7 7 6 6 6 5 5 6
57 57 57 58 59 58 55 54 51 46 42 43 43 43 46 49 48 46 43 41 40 39 36 34 34 34 34 32 31 29 28 26 26 27 28 28 28 26 24 23 21 21 20 18 18 17 16 15 14 13 13 14 15 15 14 15 15 16 16 15 14 15 16 14 11 11 10 10 9 8 8 10 10 11 10 10 10 10 9 8 7 6 4 3 3
58 58 58 58 58 58 56 55 53 49 48 48 46 47 51 54 51 49 49 49 47 44 40 37 36 35 33 32 31 30 28 27 27 29 29 29 29 27 25 24 22 21 20 19 20 20 19 17 16 15 15 16 18 17 16 15 16 16 16 16 15 17 19 19 17 16 16 15 14 12 11 11 11 12 13 13 14 14 13 11 10 9 7 6 6
60 59 58 58 57 56 56 55 54 53 52 51 49 51 55 56 53 52 51 49 47 44 40 37 35 32 31 30 30 29 28 28 28 29 30 30 30 28 26 25 23 21 21 21 22 22 21 19 17 16 16 17 19 20 18 17 16 17 16 15 16 19 21 22 22 21 20 20 20 19 17 16 15 14 14 14 15 16 17 16 15 14 12 11 11
63 62 60 59 57 56 56 55 54 55 54 51 52 55 57 56 54 54 51 47 46 45 41 36 34 31 29 29 29 28 28 28 28 29 31 31 30 29 28 26 24 22 22 23 24 23 22 20 19 19 18 18 20 22 22 19 18 16 14 14 17 20 22 24 23 22 22 23 23 22 22 21 21 21 21 20 18 18 19 20 19 19 18 18 17
67 64 63 61 59 57 57 56 56 56 56 54 55 57 59 57 55 53 52 49 48 47 44 40 37 35 32 30 29 29 30 30 29 29 31 31 30 29 29 27 25 23 24 25 25 25 24 22 21 21 20 21 22 24 24 23 20 15 12 13 17 20 23 24 24 24 24 24 24 24 23 23 23 24 26 27 26 24 24 24 24 23 22 22 22
70 68 66 64 62 60 59 58 58 57 58 59 58 57 59 61 58 53 51 50 49 48 47 43 40 37 34 32 32 32 32 32 31 30 31 30 29 29 29 28 27 25 25 26 27 26 26 25 24 24 24 24 25 26 26 25 20 14 13 16 18 20 22 23 23 24 24 24 24 24 23 22 22 23 25 27 27 27 26 27 27 26 25 25 25
74 72 69 67 65 63 62 61 60 59 60 63 61 57 58 62 60 53 48 49 50 49 48 46 44 42 39 36 35 34 34 34 34 34 35 34 32 30 30 31 30 28 28 28 28 28 28 28 27 27 27 27 27 28 27 24 19 17 17 19 19 20 21 22 22 23 22 21 21 21 20 20 20 21 23 24 26 26 25 25 26 26 26 26 26
78 76 73 71 69 67 65 64 63 62 63 64 63 59 57 60 61 57 51 48 49 50 50 51 50 49 46 42 38 36 37 37 38 39 40 39 38 35 33 33 33 32 30 30 31 31 31 30 30 30 30 30 31 30 26 22 20 21 21 20 19 20 20 20 21 22 21 20 19 19 19 18 19 20 21 22 23 24 23 22 22 23 25 26 28
82 80 77 75 73 71 69 68 67 65 65 65 65 63 59 58 60 60 57 53 51 50 53 56 56 54 51 47 42 40 41 41 43 45 45 44 42 40 39 38 37 34 33 34 34 34 34 33 33 32 33 33 32 30 27 24 23 23 22 21 21 21 21 22 22 22 22 21 21 20 19 19 19 20 20 20 21 21 20 20 20 20 21 23 26
86 84 81 79 76 74 72 71 71 69 68 67 67 65 63 61 61 61 60 57 55 53 53 55 57 58 56 51 47 47 47 46 47 49 47 44 42 41 41 43 43 41 39 39 37 35 36 37 36 35 35 34 34 32 29 26 24 23 22 22 22 23 24 24 25 25 24 23 21 20 19 19 18 18 19 20 21 21 21 21 22 22 22 22 23
89 87 85 82 80 78 75 74 74 73 71 69 68 67 66 64 63 64 62 61 60 59 56 54 55 58 59 56 53 52 52 50 49 50 48 46 44 43 43 46 47 47 47 45 41 38 39 41 40 40 38 37 37 35 32 27 25 23 23 23 24 25 26 27 27 27 26 25 23 21 19 18 17 17 17 19 21 21 22 23 23 23 23 24 25
91 90 88 86 83 81 79 78 77 76 74 73 71 70 69 67 66 66 67 66 65 64 61 58 56 56 59 60 58 56 55 53 51 51 51 50 48 46 46 49 50 48 47 44 42 42 44 44 43 43 42 41 40 39 35 31 27 25 25 26 27 28 29 30 29 28 27 27 26 23 21 19 19 18 18 19 20 20 21 22 23 23 23 24 24
93 92 91 89 87 85 83 81 80 79 78 76 75 74 72 70 68 70 71 70 70 69 67 64 60 58 60 62 61 59 58 56 54 54 53 52 50 49 50 52 52 50 48 45 44 46 47 45 44 45 45 44 43 42 40 36 32 29 28 28 30 31 32 32 31 30 29 28 27 25 23 22 21 21 20 21 21 20 19 20 21 22 23 23 24
96 94 93 91 89 88 86 84 83 81 80 79 78 77 75 73 71 72 75 75 74 72 71 68 64 62 63 64 63 62 61 60 58 56 55 55 54 54 55 55 53 52 51 50 51 51 49 47 46 48 49 48 45 44 43 39 36 33 32 32 34 34 34 33 32 32 32 31 29 28 27 26 25 24 24 24 24 23 21 20 20 21 23 24 25
99 97 95 94 92 91 89 88 86 84 83 82 81 81 79 77 74 75 78 79 77 76 75 72 68 65 65 66 66 65 63 62 61 59 57 57 57 57 57 54 53 53 53 54 54 53 49 45 43 45 49 51 49 47 45 43 39 36 35 36 36 36 35 35 34 33 34 34 32 31 30 29 28 27 27 27 27 26 25 23 22 23 24 25 25
102 100 99 97 96 94 92 91 89 87 85 85 84 84 83 81 79 78 79 80 79 78 78 77 73 69 68 68 68 67 66 64 63 61 59 58 58 59 58 55 52 53 55 57 58 56 49 42 39 40 47 52 52 49 47 45 42 39 38 38 38 39 38 37 35 34 34 35 35 34 33 32 30 29 28 29 29 29 28 26 25 25 26 26 25
106 105 102 101 99 97 95 94 92 90 88 87 87 86 86 85 83 82 81 80 80 79 79 80 78 75 72 71 71 70 68 67 65 64 62 60 59 59 59 56 54 54 56 59 60 58 51 44 41 43 49 53 52 50 50 48 46 44 42 40 40 41 41 40 39 37 36 37 38 38 36 35 33 31 30 31 31 31 30 28 27 28 30 31 31
110 109 107 105 103 100 98 97 95 94 92 90 89 89 89 88 87 85 83 82 82 81 81 82 81 79 77 76 75 73 71 69 68 66 64 63 62 61 60 58 56 56 57 59 59 58 53 47 44 48 54 55 53 51 51 50 48 47 45 44 43 43 43 43 41 40 39 39 39 39 38 37 36 35 34 34 34 34 33 32 31 31 34 37 38
114 113 111 109 106 104 102 100 98 97 95 93 92 91 91 91 90 89 86 85 84 83 82 83 84 83 81 79 78 76 73 72 72 70 67 65 65 65 63 60 58 58 58 60 61 59 55 52 50 52 55 58 56 53 52 52 51 49 47 47 46 47 47 46 44 42 41 41 40 39 38 37 37 38 39 39 39 39 38 37 37 38 41 44 44
118 117 115 112 110 108 106 104 102 100 99 97 95 94 93 93 93 92 90 88 87 86 85 84 86 87 85 83 81 80 77 75 75 74 70 67 68 68 65 61 60 59 57 58 58 56 55 57 58 58 58 57 56 53 53 53 53 52 51 50 49 50 50 50 49 46 45 44 43 42 39 38 38 38 39 41 44 45 45 46 47 48 49 49 49
123 121 118 116 114 112 110 108 106 103 102 101 99 97 96 95 95 95 94 92 90 90 89 87 87 88 88 86 85 84 81 79 79 78 74 71 71 71 69 65 63 60 56 57 59 57 55 58 59 57 56 56 56 55 55 55 55 56 55 54 53 53 54 55 54 52 49 48 48 46 43 41 38 36 37 40 44 47 48 49 51 51 50 49 50
127 125 122 119 117 115 113 111 109 107 105 104 102 100 99 98 97 97 97 96 94 93 92 91 90 90 90 90 89 87 85 84 82 81 79 76 75 74 73 72 70 66 61 59 59 55 52 53 55 53 52 52 53 54 55 57 60 61 61 59 58 57 57 59 59 57 56 53 50 48 46 42 37 36 40 45 47 47 47 48 49 50 50 49 49
130 128 126 123 121 119 117 115 113 111 109 107 106 104 102 100 100 99 99 99 98 97 95 94 93 92 91 92 92 91 89 87 86 85 83 81 80 79 78 78 78 77 74 70 65 59 54 53 56 57 55 54 56 58 60 62 65 66 65 64 62 60 59 60 61 61 62 60 56 52 48 43 40 42 49 53 52 48 45 45 48 50 53 53 52
130 130 129 127 125 123 121 119 117 114 113 111 109 107 105 103 102 101 101 101 101 100 99 97 96 95 94 94 95 94 92 90 89 88 87 86 84 83 83 83 83 83 83 82 80 76 71 67 64 61 58 56 58 61 63 65 68 69 69 67 65 62 61 61 61 62 64 64 62 59 55 52 51 53 56 57 55 52 48 47 48 50 53 56 57
131 131 131 130 129 127 125 123 121 118 116 114 112 111 109 107 105 104 103 103 103 103 102 101 99 98 97 97 97 97 95 94 92 91 91 90 88 87 87 87 87 87 86 84 82 81 81 80 77 73 70 67 66 66 66 67 69 71 70 69 67 66 64 64 64 64 65 65 64 64 62 61 62 62 61 60 60 58 55 54 53 52 54 58 59
132 132 132 132 131 130 128 127 125 122 120 117 115 114 112 111 109 107 105 105 105 105 105 104 103 101 99 99 99 99 98 97 96 94 93 93 92 91 91 90 89 89 89 86 82 78 78 80 81 80 79 78 77 77 76 75 74 74 73 71 71 70 69 68 68 68 68 67 66 65 65 66 67 68 67 67 65 63 61 59 57 56 57 60 61
132 133 134 133 133 132 131 130 128 126 123 121 118 116 115 114 112 110 108 107 107 107 107 107 106 104 103 102 102 102 101 101 100 98 97 96 95 94 94 93 92 91 91 89 85 80 78 79 80 81 81 81 80 79 78 77 77 77 76 75 75 74 74 73 72 71 71 70 69 69 69 69 70 71 72 71 70 68 65 63 60 58 57 59 62
129 132 134 135 134 134 133 132 130 128 127 124 122 119 117 116 115 113 111 109 109 109 109 109 109 108 106 105 104 104 104 103 103 102 101 100 99 98 97 96 95 94 93 92 89 85 82 81 81 82 82 82 82 81 80 79 79 79 79 79 78 78 78 77 76 75 74 73 72 71 71 71 71 72 73 72 71 70 67 65 63 59 57 58 63
122 127 131 133 134 134 134 133 132 130 129 127 126 123 120 118 117 116 114 112 111 111 111 111 111 110 109 108 107 106 105 105 105 105 104 103 102 102 100 99 98 97 96 96 94 91 88 86 85 84 84 84 84 84 84 83 82 82 82 82 82 82 82 81 80 79 78 77 76 75 73 73 73 73 73 72 72 71 69 68 66 63 61 63 65
116 119 123 127 131 134 134 134 133 131 130 129 128 126 124 121 119 118 117 116 114 113 113 112 112 112 112 111 110 109 108 107 107 107 106 105 105 105 104 103 102 100 99 99 98 96 94 92 90 89 88 87 87 87 87 87 87 86 85 85 85 85 85 84 84 83 82 81 80 79 78 76 76 76 75 75 75 74 73 72 70 68 67 68 68
111 114 116 120 124 129 132 134 133 132 132 131 130 129 127 125 122 120 119 118 117 116 115 114 114 113 113 113 112 112 111 109 109 108 108 107 107 107 107 107 106 104 103 102 101 100 99 97 95 94 93 92 90 90 90 90 90 90 89 88 88 88 87 87 86 86 85 84 84 83 81 80 80 79 79 79 79 78 77 76 75 73 72 72 71
106 109 110 113 116 122 127 131 133 133 133 132 131 130 129 128 126 123 121 120 119 118 117 116 116 115 114 114 114 114 113 112 111 110 110 109 109 109 109 109 108 108 107 106 105 104 102 100 99 98 97 96 95 94 93 93 93 94 93 93 92 91 91 90 89 88 88 87 87 86 85 84 84 83 82 82 81 81 80 80 79 78 77 76 76
100 102 105 107 110 114 120 126 130 132 133 132 131 131 130 130 129 127 124 122 121 121 120 119 118 117 116 116 115 115 115 114 114 113 112 111 110 110 110 110 110 109 109 109 108 107 106 104 102 101 100 99 99 98 97 96 96 95 95 96 95 95 94 93 92 91 91 90 90 89 89 88 87 87 86 85 84 84 83 82 81 81 81 80 79
Wind_Direction
256 253 248 246 246 247 251 253 254 255 255 253 252 252 255 256 256 264 274 277 275 281 294 311 340 350 356 5 11 16 16 16 15 10 10 11 9 9 9 9 8 4 357 345 335 329 325 322 321 321 321 320 322 323 323 322 325 326 323 324 326 326 329 331 331 334 338 338 339 344 348 346 342 344 347 350 353 355 356 357 355 354 359 1 359
258 256 250 245 244 243 247 252 254 255 256 255 255 254 256 257 256 259 265 270 270 268 271 283 302 321 334 346 357 5 7 7 6 0 358 0 1 1 359 359 0 357 352 344 335 326 320 316 314 315 314 314 314 313 313 313 317 320 320 320 323 323 324 327 330 332 335 338 340 341 343 342 341 341 345 347 349 348 349 349 348 350 355 356 355
258 258 252 246 242 240 242 246 250 253 255 256 255 256 258 259 259 260 263 267 270 267 263 266 275 289 304 321 338 352 357 356 355 350 345 345 347 349 350 352 356 356 351 344 336 330 324 322 320 318 315 313 311 310 311 313 316 319 320 320 322 323 326 330 332 335 336 339 341 340 339 339 338 338 341 343 343 343 343 344 346 349 353 353 352
256 254 254 249 243 239 237 240 245 249 251 253 254 255 258 260 260 261 263 265 268 268 263 261 263 271 282 295 314 332 341 342 340 336 332 330 331 334 336 344 353 357 357 351 342 335 332 334 335 333 329 324 321 319 319 321 322 324 326 327 329 333 335 337 339 341 341 342 343 342 343 344 345 345 346 346 345 345 345 347 348 351 353 353 350
249 247 250 251 246 241 237 235 237 242 245 247 250 252 255 258 259 260 261 262 264 266 264 261 260 262 270 279 292 306 316 321 318 315 315 315 316 316 320 330 345 354 357 359 357 351 348 349 351 355 355 350 343 339 336 335 335 337 338 340 344 346 348 351 353 352 351 350 349 349 350 351 352 353 353 353 352 352 353 353 354 355 357 357 353
242 240 246 250 247 242 239 236 233 235 240 242 243 247 250 253 255 256 257 257 258 260 260 260 258 259 262 269 278 288 295 295 296 297 298 300 301 303 305 312 324 339 348 359 5 6 9 10 10 14 14 11 7 5 2 359 355 354 354 356 0 2 5 7 7 6 4 1 359 358 358 359 359 1 1 0 0 0 2 3 3 5 6 5 1
238 239 245 249 246 242 240 237 234 232 234 237 239 241 243 246 248 251 253 253 253 253 255 256 256 256 257 260 267 274 277 277 278 280 283 286 289 291 293 296 303 317 330 345 0 6 13 19 25 29 31 30 29 28 25 23 20 17 17 16 19 21 21 21 20 18 16 13 10 9 9 9 9 11 12 12 12 12 13 15 16 17 16 13 10
239 242 244 244 243 243 241 239 236 233 230 232 236 237 237 239 241 243 246 247 248 249 251 253 253 252 251 253 258 263 264 263 263 267 271 274 277 279 282 285 287 295 308 323 342 355 5 13 23 32 37 40 44 44 43 44 44 42 39 38 38 38 39 39 36 31 25 23 22 22 22 22 24 26 27 27 26 25 25 26 28 29 28 25 21
237 241 243 243 243 243 242 241 239 235 230 229 230 233 234 234 234 237 240 242 243 245 247 248 248 248 247 247 251 254 255 253 252 255 260 264 266 269 273 276 278 283 289 299 315 329 346 0 11 26 33 39 45 49 53 57 61 61 59 57 56 54 54 55 53 47 38 32 32 32 34 36 39 43 44 44 43 42 41 41 41 42 42 41 39
240 239 238 242 246 245 242 241 241 239 235 230 228 229 230 231 230 231 234 236 238 240 242 243 243 243 244 244 246 249 249 247 246 250 253 258 260 262 266 271 275 278 283 290 298 306 322 340 354 13 26 33 41 49 53 56 61 66 70 69 68 66 64 65 67 63 54 47 44 43 45 47 51 54 57 58 59 60 59 57 56 55 54 54 54
237 235 231 232 240 244 244 240 239 240 238 235 232 230 230 230 229 228 228 230 233 235 237 239 239 239 240 240 242 244 245 243 243 247 251 254 257 259 262 268 273 275 279 285 293 299 311 325 334 353 13 22 33 44 50 51 54 59 65 68 70 70 67 66 70 73 71 68 65 61 60 61 64 67 68 68 70 72 72 72 70 68 66 66 66
230 230 230 229 230 239 246 244 239 236 236 237 237 236 236 235 232 229 227 225 227 230 233 235 235 235 236 237 238 240 242 242 242 246 249 251 254 256 257 261 267 272 276 281 288 295 303 312 318 332 351 3 15 31 40 43 45 48 55 62 66 72 72 66 65 71 77 84 89 87 81 78 80 82 83 82 82 83 83 83 82 81 80 79 79
228 227 227 226 223 228 242 248 244 237 233 233 235 237 240 242 240 237 232 228 226 227 229 232 232 233 235 236 237 239 240 239 238 240 245 247 249 251 253 255 259 264 269 275 280 286 293 299 304 314 325 334 344 2 19 29 33 34 41 53 61 71 82 86 83 86 88 94 105 110 105 99 96 95 96 96 95 94 94 93 92 91 90 89 88
227 226 224 220 218 220 230 243 246 241 233 229 229 233 237 241 244 244 239 234 231 229 230 230 231 232 234 236 236 237 237 236 234 234 240 244 245 247 249 250 252 257 263 268 272 276 281 285 290 298 305 309 313 317 333 351 6 13 19 32 50 64 88 116 130 132 132 130 133 136 130 121 113 109 108 107 106 106 104 102 100 99 97 96 95
224 225 223 218 216 219 225 234 240 239 235 230 228 229 233 238 243 247 247 243 238 235 233 232 233 233 234 235 237 237 236 234 230 230 234 239 241 244 247 248 250 254 257 262 266 268 271 275 280 285 290 293 292 293 294 296 294 294 313 334 5 32 59 140 164 168 169 167 166 169 167 160 146 131 124 122 119 118 116 112 109 105 103 101 99
223 223 221 218 216 220 226 231 233 233 233 233 232 232 235 239 242 246 250 250 247 243 239 236 236 235 235 236 237 237 236 233 228 226 230 235 238 241 245 247 249 251 254 257 261 264 268 273 275 278 282 284 282 279 276 276 276 273 274 278 279 283 303 299 245 213 208 204 201 201 201 198 191 175 156 146 139 135 133 127 120 113 109 106 103
224 222 220 219 219 222 227 232 231 229 227 229 230 232 236 240 244 247 251 254 255 253 248 244 241 239 237 236 237 238 236 232 229 227 228 232 236 239 243 246 246 248 251 254 257 260 264 268 272 276 280 281 279 276 271 267 266 266 268 273 278 275 269 274 286 279 263 247 236 230 228 224 220 213 198 184 172 161 154 147 137 128 120 114 110
225 224 222 221 221 222 226 230 231 227 223 223 224 226 227 229 233 237 242 247 252 255 255 253 249 245 241 237 237 238 236 233 230 229 229 232 235 238 241 243 244 245 248 252 255 258 260 262 267 273 278 281 280 276 273 269 265 263 262 265 274 279 274 266 270 278 279 276 266 254 246 240 237 233 226 217 210 200 192 182 169 155 143 132 125
226 225 224 223 223 224 226 227 226 223 222 223 224 226 227 226 225 226 228 230 235 241 247 250 250 249 246 241 239 239 237 234 232 231 231 233 236 238 240 241 242 243 246 250 253 255 258 259 262 268 274 279 280 278 275 272 269 267 264 263 267 273 273 271 270 273 275 276 277 275 268 259 253 249 245 239 234 230 227 222 216 211 207 198 187
226 226 225 225 225 226 226 226 224 221 220 220 222 227 231 229 226 226 227 227 228 229 231 234 238 241 242 240 239 239 237 234 233 232 232 234 237 239 240 241 241 241 243 247 250 253 256 257 259 263 268 273 277 278 277 273 269 267 267 267 268 268 268 268 269 270 273 276 277 278 281 279 273 265 260 255 251 250 247 244 242 242 246 249 250
226 226 225 225 226 226 226 225 223 221 219 219 221 227 231 231 228 228 229 231 232 231 230 230 233 236 237 236 236 235 234 232 231 231 232 235 238 240 241 242 241 240 241 244 248 251 254 256 257 259 261 266 273 277 277 273 269 266 265 268 268 267 266 267 267 267 270 273 275 277 280 284 286 285 280 272 266 264 262 261 259 256 257 260 263
228 226 225 225 225 226 226 225 223 221 219 219 221 226 230 230 229 228 228 230 233 235 234 234 235 236 236 236 234 233 232 230 228 229 231 235 239 242 244 244 242 239 238 241 246 249 252 254 256 257 259 264 270 274 274 272 269 267 264 263 264 266 267 269 270 272 272 273 275 277 280 282 285 287 287 285 281 277 275 274 273 271 270 268 268
229 228 227 225 224 224 225 225 224 221 219 219 223 226 227 229 230 230 230 230 231 233 234 234 234 234 233 233 233 234 232 229 227 227 230 234 239 244 248 249 246 242 239 240 245 249 252 253 253 255 259 262 266 270 272 270 267 264 257 255 258 263 267 271 275 278 279 279 280 282 283 285 286 286 286 286 285 284 283 283 283 284 283 281 277
231 229 228 227 225 223 223 224 224 223 220 220 224 226 226 227 229 229 229 230 230 232 234 234 234 233 231 229 229 230 232 232 228 225 226 230 236 245 253 256 253 247 242 242 245 248 252 254 254 256 259 261 264 267 268 266 266 263 256 253 255 259 264 270 274 277 279 281 284 286 287 288 287 286 286 287 288 289 290 291 292 292 290 287 284
232 231 229 228 226 225 224 223 223 223 222 222 224 224 225 228 228 225 226 229 232 233 234 236 237 235 231 227 225 224 228 230 229 225 221 218 220 233 250 259 260 255 249 246 247 248 250 252 254 257 259 261 262 263 263 265 269 270 264 259 255 255 258 262 267 270 273 276 279 282 286 287 286 286 287 290 293 296 298 299 298 296 293 290 285
233 232 230 228 227 226 225 224 224 223 222 223 225 224 225 228 228 223 221 226 231 233 232 234 237 237 233 227 222 222 224 226 226 225 220 213 211 217 230 243 252 256 255 251 248 247 248 250 252 254 256 257 259 261 262 264 269 271 270 267 264 261 260 260 263 267 270 274 276 277 279 281 283 286 290 295 298 302 306 306 302 296 292 288 285
233 232 231 229 227 226 225 225 225 224 223 223 224 224 225 227 227 223 220 220 225 230 231 231 232 235 234 230 224 223 223 223 225 226 223 219 219 218 218 224 232 241 249 252 251 249 248 247 248 250 252 254 257 260 261 261 264 266 267 268 267 267 268 267 268 270 272 275 278 278 278 278 281 285 292 296 298 302 307 310 309 308 305 298 294
233 233 232 230 228 226 225 225 226 226 224 224 224 224 224 224 223 222 221 220 221 224 229 232 232 232 233 231 226 226 225 224 226 227 225 224 225 223 221 221 221 223 229 236 242 248 251 250 248 248 249 251 254 256 257 257 258 261 263 265 266 268 270 270 270 271 274 277 279 278 276 276 279 284 290 294 298 304 310 313 316 321 324 321 315
232 232 232 231 230 228 226 224 225 226 225 225 225 224 224 222 221 221 220 221 221 222 225 229 231 232 232 230 227 227 228 227 227 227 227 225 224 224 225 225 222 221 222 224 228 235 243 247 247 245 244 245 247 249 250 251 252 255 258 261 263 264 267 268 269 272 277 282 283 282 280 278 279 281 285 291 296 303 309 313 316 321 326 327 326
232 232 232 231 230 229 227 225 224 224 225 225 225 225 224 222 220 220 220 220 222 223 224 226 228 230 230 228 227 228 229 228 226 226 227 226 226 227 228 227 226 227 227 227 228 230 232 236 241 242 241 241 242 243 244 244 246 248 251 255 258 261 263 264 266 270 275 279 282 283 283 282 283 284 285 287 290 296 302 307 310 314 319 320 322
231 231 231 231 231 230 229 227 225 224 224 225 225 226 225 223 220 219 220 220 221 223 225 225 226 228 228 226 225 227 228 227 225 226 227 229 230 231 228 225 227 230 231 231 233 232 231 233 238 241 241 241 242 242 241 240 240 242 246 250 254 257 259 261 263 267 272 275 278 280 281 282 282 283 284 283 284 287 291 296 301 306 311 315 317
231 231 231 231 231 230 230 228 226 224 223 224 225 225 226 224 222 220 219 220 221 223 224 225 225 226 226 224 224 226 228 227 226 225 227 231 233 232 227 224 226 229 231 233 234 232 231 233 237 241 242 243 242 242 242 240 239 240 243 248 250 253 256 258 260 264 269 273 276 278 280 281 282 284 285 285 287 288 290 294 299 304 310 314 317
232 231 231 231 230 230 230 229 228 226 224 223 224 225 225 225 224 222 221 221 222 223 224 225 225 226 224 222 222 225 226 227 226 227 229 231 233 231 229 228 228 229 230 232 233 231 232 235 240 243 244 242 241 242 242 241 239 239 242 245 248 251 254 257 258 261 265 268 271 273 274 275 276 279 282 284 287 288 291 295 301 306 311 316 318
233 232 231 231 230 230 230 229 228 227 225 224 223 224 225 225 224 224 223 223 223 223 224 225 226 226 224 221 222 223 225 226 227 229 231 233 233 231 230 230 231 230 229 231 232 232 236 242 247 249 246 242 240 240 241 240 240 240 242 244 246 249 253 256 258 260 262 265 267 268 269 269 271 275 278 281 283 283 284 288 295 301 306 311 314
233 233 232 231 231 230 229 229 229 228 226 225 223 223 224 225 225 225 224 224 224 224 224 224 225 226 224 222 222 223 225 228 230 231 234 235 234 231 231 231 232 229 228 230 232 233 238 246 252 254 250 245 242 241 241 241 241 241 243 245 247 248 251 254 257 259 261 262 263 263 265 268 271 274 277 278 279 277 276 279 287 294 299 302 304
234 233 232 231 231 230 229 229 229 229 227 226 224 223 224 225 225 225 225 224 224 224 224 222 222 223 223 222 222 223 225 228 230 231 235 236 233 230 230 232 231 228 228 229 229 232 239 248 256 258 253 246 244 243 242 243 243 244 244 247 248 249 251 253 255 257 259 260 261 263 265 267 270 272 275 278 279 278 277 277 280 287 294 297 299
234 234 233 232 231 230 230 229 229 229 228 227 225 224 223 224 225 225 225 224 224 224 224 223 222 222 222 222 222 223 225 227 228 230 234 235 232 228 229 231 230 229 230 230 230 233 242 252 260 263 256 247 243 244 244 245 246 246 246 247 248 249 252 254 255 257 258 260 262 264 266 269 273 275 276 277 278 279 280 280 281 286 293 297 298
234 234 233 233 232 231 230 229 229 228 228 228 226 225 223 223 224 225 225 224 224 224 224 224 223 222 221 221 222 223 224 226 228 230 232 233 231 229 228 230 230 231 233 233 235 241 252 260 266 268 262 251 246 247 247 248 249 249 249 250 250 250 252 255 256 257 258 260 262 263 266 271 277 283 286 286 285 285 284 283 284 288 292 295 296
235 234 233 233 233 231 230 230 229 228 228 228 227 226 224 224 224 224 225 225 224 224 225 225 224 223 222 222 223 224 224 225 227 229 230 230 231 230 229 228 228 229 231 235 239 245 255 262 265 265 262 257 255 255 254 253 253 253 252 252 253 253 254 255 256 257 258 259 261 263 266 269 276 286 292 291 287 284 283 284 286 288 289 290 292
236 236 234 233 233 232 231 230 229 228 228 228 227 227 225 224 224 224 225 225 225 225 225 225 225 225 224 223 224 224 224 225 227 228 229 229 229 231 231 229 227 227 229 233 236 240 246 251 251 250 250 253 256 259 259 259 259 257 255 255 255 256 256 257 257 257 258 259 261 264 267 270 275 281 281 277 273 273 277 282 286 288 288 288 289
235 236 235 234 233 233 232 231 230 229 228 227 227 227 226 225 224 224 224 225 225 225 225 225 225 225 225 225 225 225 225 225 226 227 229 228 229 230 232 231 230 229 231 233 235 235 237 240 240 239 239 243 248 250 251 252 253 254 254 255 255 255 256 258 258 258 259 259 260 264 267 270 270 268 266 267 268 270 275 281 285 286 286 288 290
234 235 235 235 234 233 232 232 231 230 228 227 227 227 226 226 225 224 224 224 225 226 226 225 225 225 225 226 227 226 226 226 226 227 228 228 228 230 231 232 233 233 233 235 238 239 239 239 238 237 237 240 243 244 245 246 247 248 250 252 253 253 255 257 258 259 260 260 261 262 264 266 265 263 263 266 269 272 275 279 281 281 282 285 289
234 234 234 235 235 234 233 232 231 230 229 228 227 227 226 226 225 224 224 224 225 226 226 226 226 225 225 226 227 228 227 227 227 227 228 229 229 230 231 232 233 234 234 236 239 242 242 242 241 240 239 240 242 243 245 247 248 249 250 251 252 253 254 256 258 259 260 260 261 262 263 263 264 265 266 267 269 271 274 278 279 280 281 284 288
233 233 233 234 234 234 233 232 232 231 230 229 227 226 226 226 226 225 224 224 224 225 226 227 227 226 226 226 227 228 228 229 228 228 228 229 230 231 232 233 233 234 234 235 238 241 242 242 242 243 243 243 244 245 247 248 250 251 252 252 252 252 254 256 257 258 259 259 260 261 262 262 263 265 267 268 269 270 273 275 277 279 282 285 289
232 232 232 233 233 233 233 233 232 231 231 230 228 227 226 226 226 225 224 224 224 225 226 227 228 227 227 227 227 228 228 229 229 229 229 230 231 232 233 234 234 234 234 236 238 240 241 242 243 244 245 245 246 247 248 249 250 251 252 253 253 253 254 255 257 258 258 259 259 259 260 262 263 265 267 269 271 272 274 275 276 277 279 282 284
232 231 231 231 232 232 232 232 232 231 231 230 230 228 226 226 226 226 225 224 225 225 225 226 228 228 228 228 228 228 228 229 230 230 231 231 232 233 234 235 236 236 235 236 238 240 242 243 244 245 246 246 247 247 248 249 250 251 252 253 253 254 254 256 257 258 259 259 259 260 260 261 263 264 266 268 271 272 274 274 275 275 275 275 276
232 231 231 230 231 231 231 232 232 231 231 230 230 229 228 226 225 225 225 225 225 225 225 226 227 228 229 229 229 229 229 230 230 231 231 232 233 234 235 236 237 237 237 237 238 240 242 243 245 246 247 247 248 248 249 249 250 250 252 253 254 254 255 256 257 258 259 259 260 260 261 261 262 264 265 267 270 271 272 273 274 275 275 274 274
233 232 231 230 230 230 231 231 231 231 230 230 229 229 229 227 226 225 225 225 225 225 225 226 226 227 229 229 230 230 230 230 231 232 232 232 233 235 236 237 238 238 238 238 239 240 241 242 244 246 247 248 249 249 250 250 251 251 251 252 253 254 255 257 258 258 259 260 260 261 261 262 263 264 265 267 268 270 271 272 273 274 275 276 277
233 233 232 230 230 229 230 230 230 230 230 230 229 229 229 228 227 225 225 225 225 225 226 226 226 227 228 229 230 231 231 231 232 232 233 233 234 234 236 237 238 239 239 240 240 241 241 242 243 245 246 248 249 250 250 251 252 252 252 252 253 254 255 256 257 258 259 260 261 261 262 262 263 264 265 266 268 269 270 270 271 272 273 275 276
234 233 232 231 230 229 229 229 229 229 229 229 229 229 228 228 228 227 225 225 225 225 226 226 226 227 227 228 229 231 231 232 232 233 233 234 235 235 236 236 237 238 240 241 241 242 242 242 243 244 246 247 248 249 250 251 252 253 253 253 254 254 255 256 257 258 259 260 261 262 262 263 264 264 265 266 267 268 269 270 271 272 272 273 274
234 234 232 231 230 229 229 228 228 228 229 229 229 229 228 228 228 227 226 225 225 225 226 226 227 227 227 228 229 230 231 232 233 233 234 234 236 236 237 237 238 238 239 240 241 242 242 243 243 244 245 246 247 248 250 251 252 252 253 254 254 255 256 256 257 258 259 260 261 262 263 263 264 264 265 266 267 268 269 270 271 271 272 272 273
Height
11024 11025 11026 11027 11028 11029 11030 11031 11031 11032 11033 11034 11035 11036 11036 11037 11037 11037 11038 11037 11037 11037 11037 11037 11037 11037 11036 11036 11036 11035 11035 11034 11034 11033 11033 11032 11032 11031 11030 11030 11029 11028 11027 11027 11026 11025 11025 11024 11023 11022 11022 11021 11020 11020 11019 11018 11017 11017 11016 11015 11014 11014 11013 11012 11011 11009 11008 11007 11005 11003 11002 11002 11002 11001 10999 10998 10997 10996 10995 10994 10992 10991 10990 10988 10987
11023 11024 11025 11025 11026 11027 11028 11029 11030 11030 11031 11033 11034 11035 11035 11036 11037 11037 11037 11037 11037 11037 11037 11037 11037 11037 11037 11037 11036 11036 11035 11035 11034 11033 11033 11032 11032 11031 11031 11030 11029 11028 11028 11027 11026 11026 11025 11024 11023 11023 11022 11022 11021 11020 11019 11018 11018 11017 11016 11014 11014 11013 11013 11012 11010 11009 11008 11007 11006 11004 11003 11003 11003 11001 11000 10998 10997 10996 10995 10993 10992 10991 10989 10988 10986
11021 11022 11023 11024 11024 11026 11027 11027 11028 11029 11030 11031 11032 11034 11035 11035 11036 11037 11037 11037 11037 11037 11037 11037 11037 11037 11037 11037 11037 11036 11036 11035 11034 11033 11033 11032 11031 11031 11031 11030 11030 11029 11028 11027 11026 11026 11025 11024 11023 11023 11022 11022 11021 11020 11020 11019 11018 11017 11016 11014 11014 11013 11012 11011 11010 11009 11008 11007 11006 11004 11004 11003 11002 11001 11000 10998 10997 10995 10994 10992 10991 10990 10988 10987 10986
11019 11020 11020 11021 11023 11023 11024 11025 11026 11027 11028 11029 11030 11032 11033 11034 11035 11036 11037 11037 11037 11037 11037 11037 11037 11037 11037 11037 11037 11037 11036 11035 11034 11034 11033 11032 11032 11031 11030 11030 11030 11029 11028 11027 11027 11026 11025 11024 11024 11023 11022 11022 11021 11020 11020 11019 11017 11016 11015 11014 11014 11013 11012 11011 11010 11008 11007 11006 11005 11004 11003 11002 11001 11000 10999 10997 10996 10994 10993 10991 10990 10989 10988 10987 10985
11016 11017 11018 11019 11021 11021 11021 11022 11023 11024 11025 11027 11028 11030 11031 11033 11034 11035 11036 11036 11036 11037 11037 11037 11037 11037 11037 11037 11037 11037 11036 11035 11034 11034 11033 11032 11032 11031 11030 11030 11029 11029 11028 11027 11027 11026 11025 11024 11024 11023 11023 11022 11021 11020 11019 11018 11017 11016 11015 11014 11013 11012 11011 11010 11009 11008 11007 11006 11005 11004 11002 11001 11000 10999 10997 10996 10995 10993 10992 10991 10989 10988 10988 10986 10985
11014 11016 11016 11017 11019 11019 11019 11020 11021 11022 11023 11024 11026 11027 11029 11030 11032 11033 11034 11034 11035 11035 11036 11036 11036 11036 11036 11036 11037 11037 11036 11035 11035 11034 11033 11032 11032 11031 11030 11030 11029 11029 11028 11027 11027 11026 11025 11024 11024 11024 11023 11022 11021 11020 11019 11018 11017 11016 11015 11014 11013 11012 11011 11010 11009 11008 11007 11006 11005 11004 11002 11001 11000 10998 10997 10995 10994 10992 10991 10990 10989 10988 10987 10986 10985
11012 11014 11016 11017 11017 11017 11017 11017 11018 11020 11021 11022 11024 11025 11026 11027 11029 11030 11032 11032 11033 11034 11034 11035 11035 11036 11036 11036 11036 11036 11036 11035 11035 11034 11033 11032 11032 11031 11031 11030 11030 11029 11028 11027 11027 11026 11025 11024 11024 11024 11023 11023 11022 11021 11019 11018 11017 11016 11015 11014 11014 11013 11012 11010 11009 11008 11007 11006 11005 11004 11003 11002 11000 10999 10997 10996 10994 10993 10992 10990 10990 10989 10988 10987 10985
11007 11009 11013 11015 11015 11015 11015 11016 11017 11018 11019 11020 11021 11022 11023 11024 11026 11027 11029 11030 11031 11032 11032 11033 11034 11034 11035 11035 11036 11035 11035 11035 11034 11034 11033 11033 11032 11031 11031 11030 11030 11029 11029 11028 11027 11026 11025 11024 11024 11024 11023 11023 11022 11021 11020 11019 11018 11017 11016 11015 11014 11013 11012 11011 11010 11009 11008 11007 11006 11005 11004 11003 11002 11000 10999 10998 10996 10995 10993 10992 10991 10990 10989 10988 10986
11002 11005 11009 11011 11011 11012 11014 11014 11015 11016 11017 11017 11019 11020 11021 11022 11023 11025 11026 11027 11028 11029 11030 11031 11032 11032 11033 11034 11034 11034 11034 11034 11034 11033 11033 11032 11032 11032 11031 11031 11031 11030 11029 11029 11028 11026 11025 11025 11024 11023 11023 11023 11022 11021 11021 11020 11019 11018 11017 11016 11015 11014 11013 11012 11011 11010 11009 11008 11008 11007 11006 11005 11004 11003 11001 11000 10999 10997 10996 10994 10993 10992 10990 10989 10988
11000 11002 11004 11006 11008 11010 11012 11012 11012 11013 11015 11016 11016 11017 11018 11019 11020 11021 11023 11024 11026 11027 11027 11028 11029 11030 11031 11032 11032 11033 11033 11033 11033 11033 11033 11033 11032 11032 11031 11031 11031 11031 11031 11030 11029 11028 11026 11025 11024 11024 11023 11023 11022 11022 11021 11021 11020 11019 11018 11017 11016 11015 11015 11014 11013 11012 11011 11010 11009 11008 11008 11007 11006 11005 11004 11003 11002 11000 10999 10998 10996 10994 10993 10991 10990
10994 10995 10998 11000 11004 11007 11009 11010 11010 11011 11013 11015 11015 11016 11016 11017 11018 11018 11019 11021 11022 11024 11024 11025 11026 11027 11028 11029 11030 11030 11031 11032 11033 11033 11033 11033 11032 11032 11032 11031 11031 11031 11031 11031 11030 11029 11028 11027 11026 11025 11024 11023 11023 11022 11022 11021 11021 11020 11019 11018 11018 11017 11016 11015 11014 11013 11013 11012 11011 11010 11010 11009 11008 11007 11006 11005 11004 11003 11002 11001 10999 10998 10996 10994 10993
10984 10988 10993 10996 10998 11001 11004 11006 11008 11009 11011 11013 11015 11016 11016 11016 11016 11016 11017 11018 11019 11020 11021 11022 11023 11024 11025 11026 11027 11028 11029 11030 11031 11032 11032 11032 11032 11032 11032 11031 11031 11031 11031 11032 11031 11031 11030 11029 11028 11026 11025 11025 11024 11023 11023 11022 11022 11021 11020 11020 11019 11018 11017 11016 11015 11015 11014 11014 11013 11012 11011 11010 11010 11009 11008 11007 11006 11005 11004 11003 11002 11000 10999 10997 10996
10978 10982 10988 10990 10992 10994 10999 11003 11006 11007 11008 11010 11012 11014 11016 11016 11015 11015 11015 11016 11017 11017 11017 11018 11020 11021 11022 11023 11024 11026 11027 11028 11029 11030 11031 11031 11031 11031 11031 11031 11031 11031 11031 11031 11031 11031 11031 11030 11029 11028 11027 11026 11025 11025 11024 11023 11023 11022 11021 11021 11020 11019 11018 11017 11016 11016 11015 11015 11014 11013 11013 11012 11011 11011 11010 11009 11008 11007 11006 11005 11003 11002 11001 10999 10998
10973 10977 10981 10984 10985 10988 10993 10999 11003 11005 11006 11007 11009 11011 11013 11013 11013 11014 11014 11015 11014 11014 11014 11015 11017 11018 11019 11020 11021 11023 11024 11025 11026 11028 11028 11029 11030 11030 11030 11029 11029 11030 11030 11030 11031 11031 11031 11031 11030 11029 11028 11028 11027 11026 11026 11025 11024 11023 11022 11021 11021 11020 11019 11018 11017 11016 11016 11015 11015 11014 11014 11013 11012 11012 11011 11010 11009 11008 11007 11006 11005 11004 11002 11001 10999
10968 10971 10975 10978 10981 10985 10990 10995 11000 11003 11004 11005 11007 11009 11010 11011 11011 11012 11012 11012 11012 11011 11012 11013 11014 11014 11015 11017 11019 11020 11021 11022 11023 11025 11026 11027 11028 11028 11028 11028 11028 11029 11029 11029 11030 11030 11030 11030 11030 11030 11029 11028 11028 11027 11027 11026 11025 11024 11023 11023 11022 11021 11020 11019 11018 11017 11016 11016 11015 11015 11014 11014 11013 11013 11012 11011 11010 11009 11008 11007 11006 11005 11004 11002 11001
10962 10966 10971 10975 10979 10984 10989 10992 10995 10999 11003 11006 11007 11009 11010 11010 11010 11010 11010 11010 11009 11009 11009 11010 11010 11011 11013 11014 11016 11017 11018 11019 11020 11022 11023 11024 11025 11025 11026 11026 11027 11028 11028 11028 11029 11029 11029 11029 11029 11029 11029 11029 11028 11027 11027 11026 11026 11025 11024 11024 11023 11022 11021 11020 11019 11018 11017 11016 11016 11015 11015 11014 11014 11013 11012 11012 11011 11010 11009 11008 11007 11006 11005 11004 11002
10955 10960 10965 10970 10974 10980 10984 10987 10990 10996 11001 11005 11006 11007 11007 11008 11008 11008 11007 11006 11006 11005 11006 11007 11007 11009 11010 11011 11012 11013 11015 11017 11018 11019 11020 11021 11022 11022 11023 11024 11025 11026 11026 11027 11027 11028 11028 11028 11028 11028 11028 11028 11028 11028 11027 11026 11026 11025 11025 11024 11023 11023 11022 11021 11019 11018 11018 11017 11017 11016 11015 11015 11014 11013 11013 11012 11011 11010 11010 11009 11008 11007 11006 11005 11003
10948 10952 10957 10962 10967 10972 10977 10980 10985 10992 10997 10999 10999 10998 10997 10996 10998 10999 11000 11001 11001 11001 11001 11003 11004 11005 11006 11007 11009 11010 11013 11014 11015 11016 11017 11018 11019 11019 11020 11022 11023 11023 11024 11025 11026 11026 11027 11027 11027 11027 11027 11027 11027 11027 11027 11026 11026 11025 11025 11024 11024 11023 11022 11021 11020 11019 11018 11017 11017 11016 11016 11015 11014 11014 11013 11012 11011 11011 11010 11009 11008 11007 11006 11005 11004
10941 10945 10950 10956 10960 10964 10969 10973 10978 10985 10990 10990 10991 10990 10986 10983 10983 10984 10985 10986 10988 10990 10992 10995 10997 11000 11001 11003 11005 11007 11009 11011 11012 11013 11014 11015 11016 11016 11017 11019 11020 11021 11022 11023 11024 11024 11025 11025 11025 11025 11026 11025 11025 11025 11026 11026 11025 11025 11024 11024 11024 11023 11021 11020 11020 11019 11018 11017 11016 11016 11015 11015 11014 11014 11013 11012 11011 11010 11010 11009 11008 11007 11007 11006 11005
10934 10938 10943 10948 10952 10957 10962 10965 10970 10975 10977 10979 10982 10982 10978 10976 10977 10978 10977 10975 10976 10979 10982 10985 10988 10992 10995 10998 11000 11002 11005 11007 11009 11010 11011 11012 11012 11013 11014 11015 11016 11018 11020 11021 11021 11022 11022 11023 11024 11024 11024 11023 11023 11023 11024 11024 11024 11024 11024 11024 11023 11022 11021 11019 11019 11018 11017 11016 11015 11015 11014 11014 11013 11013 11012 11011 11011 11010 11009 11008 11008 11007 11006 11005 11004
10926 10931 10936 10940 10944 10949 10953 10957 10962 10966 10966 10969 10973 10971 10969 10970 10972 10973 10974 10976 10978 10980 10982 10984 10986 10989 10991 10994 10996 10997 11000 11002 11004 11006 11007 11008 11009 11010 11011 11011 11013 11015 11017 11017 11018 11019 11020 11021 11021 11021 11022 11022 11021 11021 11021 11022 11022 11022 11023 11023 11022 11021 11019 11018 11017 11017 11015 11014 11013 11013 11012 11012 11011 11011 11010 11010 11009 11008 11008 11007 11006 11006 11006 11005 11004
10918 10923 10928 10932 10937 10941 10945 10949 10953 10956 10958 10962 10964 10962 10961 10964 10967 10969 10972 10976 10979 10981 10982 10984 10986 10988 10991 10993 10994 10994 10995 10997 10999 11000 11002 11003 11005 11006 11007 11008 11009 11011 11013 11014 11014 11016 11017 11018 11019 11019 11019 11019 11019 11018 11018 11019 11019 11020 11021 11021 11020 11019 11018 11016 11016 11015 11014 11013 11012 11011 11011 11010 11009 11008 11008 11007 11007 11007 11006 11005 11004 11004 11004 11003 11002
10910 10915 10920 10924 10929 10933 10937 10941 10944 10947 10950 10951 10953 10954 10955 10957 10960 10965 10969 10972 10975 10977 10979 10980 10982 10984 10988 10990 10992 10992 10992 10993 10993 10994 10995 10997 11000 11001 11003 11004 11006 11008 11009 11010 11011 11012 11013 11015 11015 11016 11017 11017 11016 11015 11015 11015 11016 11018 11019 11018 11018 11017 11016 11015 11014 11014 11012 11011 11010 11010 11009 11008 11007 11006 11004 11003 11003 11003 11003 11002 11002 11002 11002 11001 11000
10900 10906 10911 10916 10920 10924 10928 10932 10935 10938 10940 10940 10941 10945 10948 10949 10953 10959 10965 10969 10972 10974 10976 10978 10979 10981 10983 10984 10986 10987 10989 10990 10990 10988 10987 10988 10992 10996 10999 11001 11003 11005 11006 11006 11007 11008 11009 11011 11012 11012 11013 11014 11013 11012 11011 11012 11014 11016 11016 11016 11015 11015 11014 11013 11013 11012 11011 11010 11008 11007 11007 11006 11005 11003 11002 11000 10999 10999 10999 10999 10998 10998 10998 10997 10997
10890 10896 10901 10906 10911 10915 10919 10922 10925 10929 10931 10931 10933 10937 10941 10943 10947 10954 10961 10965 10967 10969 10973 10976 10978 10977 10977 10978 10979 10981 10983 10985 10986 10982 10978 10976 10980 10986 10992 10996 10999 11001 11002 11003 11003 11004 11005 11005 11006 11008 11009 11009 11009 11008 11008 11009 11011 11013 11013 11013 11013 11013 11012 11012 11011 11010 11009 11008 11007 11006 11004 11003 11002 11001 10999 10998 10997 10996 10997 10996 10995 10994 10993 10993 10992
10880 10885 10891 10896 10901 10906 10910 10914 10917 10919 10922 10923 10926 10931 10935 10938 10942 10948 10954 10957 10959 10962 10966 10969 10971 10971 10971 10972 10973 10975 10977 10979 10979 10977 10973 10967 10965 10969 10978 10987 10992 10996 10998 10998 10998 10999 10999 11000 11001 11002 11003 11003 11003 11003 11005 11007 11008 11009 11009 11010 11010 11010 11010 11009 11009 11008 11007 11006 11005 11004 11003 11002 11000 10999 10998 10997 10995 10994 10994 10994 10993 10991 10990 10989 10988
10869 10874 10880 10885 10891 10896 10901 10905 10908 10911 10913 10915 10919 10923 10927 10931 10935 10940 10943 10945 10948 10952 10954 10956 10960 10962 10964 10965 10967 10969 10970 10971 10971 10970 10969 10965 10960 10960 10966 10973 10979 10985 10991 10993 10993 10993 10992 10993 10994 10995 10996 10996 10997 10998 11000 11002 11003 11004 11005 11006 11007 11007 11007 11007 11006 11005 11004 11004 11003 11001 11000 10999 10998 10997 10996 10995 10994 10993 10992 10991 10990 10989 10988 10987 10985
10858 10863 10869 10874 10880 10886 10891 10895 10899 10902 10905 10908 10911 10915 10919 10923 10927 10931 10935 10936 10938 10941 10943 10946 10950 10953 10955 10958 10961 10962 10963 10964 10964 10964 10966 10965 10961 10961 10964 10966 10967 10971 10976 10980 10983 10986 10986 10987 10988 10989 10990 10991 10992 10993 10995 10997 10998 11000 11001 11003 11004 11004 11004 11004 11003 11002 11002 11001 11000 10999 10998 10997 10996 10996 10994 10993 10991 10990 10989 10988 10987 10986 10985 10984 10983
10846 10852 10857 10863 10869 10875 10880 10885 10889 10892 10896 10900 10903 10907 10911 10915 10919 10923 10926 10929 10931 10932 10934 10937 10941 10945 10948 10951 10953 10954 10956 10957 10958 10960 10962 10961 10959 10960 10962 10964 10964 10964 10964 10964 10968 10973 10975 10977 10978 10981 10983 10984 10985 10987 10989 10992 10994 10996 10997 10999 11000 11000 11001 11001 11000 10999 10999 10998 10997 10996 10995 10995 10994 10994 10992 10991 10989 10988 10987 10986 10984 10984 10983 10982 10980
10834 10840 10845 10851 10857 10864 10870 10874 10878 10883 10887 10891 10895 10898 10901 10906 10910 10914 10917 10920 10923 10926 10928 10930 10933 10937 10941 10943 10945 10948 10950 10951 10952 10953 10955 10955 10955 10957 10959 10960 10962 10963 10963 10961 10960 10960 10961 10963 10968 10972 10975 10977 10979 10981 10983 10986 10989 10991 10993 10995 10996 10997 10997 10997 10997 10996 10996 10995 10994 10993 10993 10992 10991 10991 10990 10989 10987 10986 10985 10983 10982 10981 10980 10979 10978
10822 10828 10834 10839 10846 10852 10858 10863 10868 10873 10877 10881 10885 10889 10892 10896 10901 10904 10907 10910 10913 10917 10920 10922 10925 10929 10932 10936 10939 10941 10942 10943 10945 10947 10948 10949 10951 10952 10953 10955 10957 10959 10961 10960 10958 10954 10953 10955 10959 10964 10968 10971 10973 10975 10977 10979 10982 10985 10988 10990 10991 10992 10993 10993 10993 10993 10992 10992 10991 10990 10989 10989 10988 10987 10986 10985 10984 10983 10982 10981 10980 10978 10977 10976 10975
10810 10816 10822 10828 10834 10840 10845 10851 10857 10862 10867 10871 10876 10879 10883 10887 10891 10894 10897 10900 10903 10907 10911 10914 10917 10920 10924 10929 10932 10934 10935 10936 10938 10941 10942 10943 10944 10945 10946 10948 10951 10953 10955 10955 10952 10949 10948 10949 10953 10959 10963 10966 10969 10970 10972 10974 10976 10979 10983 10985 10986 10988 10989 10989 10990 10990 10988 10988 10987 10986 10985 10984 10983 10982 10982 10980 10980 10979 10979 10978 10977 10975 10974 10973 10972
10797 10803 10809 10815 10821 10827 10833 10838 10844 10850 10856 10861 10865 10869 10873 10878 10882 10885 10887 10889 10893 10898 10902 10905 10909 10912 10916 10921 10925 10927 10929 10931 10932 10934 10936 10936 10937 10939 10941 10943 10945 10947 10949 10948 10945 10944 10945 10946 10950 10957 10961 10962 10963 10965 10967 10968 10971 10973 10976 10979 10981 10983 10984 10985 10985 10985 10984 10984 10983 10982 10981 10980 10980 10979 10978 10977 10976 10975 10975 10975 10974 10972 10971 10970 10969
10783 10790 10796 10802 10808 10814 10820 10825 10832 10838 10844 10849 10854 10859 10863 10867 10872 10875 10878 10881 10885 10890 10893 10897 10901 10904 10908 10912 10916 10919 10922 10924 10926 10927 10928 10930 10931 10933 10936 10939 10941 10942 10943 10942 10941 10942 10945 10946 10950 10955 10958 10958 10959 10961 10962 10964 10966 10968 10970 10973 10976 10977 10979 10980 10980 10980 10980 10979 10979 10979 10978 10977 10976 10976 10976 10975 10974 10973 10972 10971 10970 10969 10967 10966 10965
10768 10775 10781 10788 10794 10801 10807 10813 10820 10826 10831 10837 10842 10847 10852 10856 10861 10865 10869 10873 10876 10880 10884 10888 10891 10895 10899 10903 10907 10911 10915 10918 10920 10920 10921 10923 10925 10928 10931 10934 10935 10936 10937 10937 10938 10941 10944 10944 10946 10950 10954 10954 10955 10957 10958 10959 10961 10962 10964 10967 10970 10972 10973 10974 10975 10975 10975 10975 10974 10974 10974 10974 10974 10973 10973 10972 10971 10969 10968 10967 10966 10965 10963 10962 10960
10752 10758 10766 10773 10780 10788 10795 10801 10807 10812 10818 10824 10830 10835 10840 10845 10850 10854 10859 10864 10867 10871 10875 10878 10881 10885 10889 10894 10898 10903 10907 10910 10912 10913 10913 10914 10918 10922 10925 10927 10929 10930 10930 10932 10934 10937 10940 10940 10940 10944 10949 10950 10951 10952 10954 10955 10956 10958 10960 10962 10964 10966 10967 10969 10970 10971 10971 10971 10970 10970 10970 10970 10970 10970 10970 10969 10967 10966 10964 10963 10962 10961 10959 10957 10956
10736 10741 10749 10757 10766 10774 10781 10787 10793 10799 10805 10811 10817 10822 10828 10833 10838 10843 10848 10853 10858 10862 10865 10869 10872 10875 10879 10884 10889 10893 10896 10899 10902 10903 10904 10906 10910 10914 10918 10921 10923 10924 10925 10926 10929 10933 10936 10936 10937 10941 10945 10947 10947 10948 10950 10950 10951 10953 10955 10957 10959 10960 10961 10963 10965 10966 10966 10966 10966 10966 10966 10966 10967 10967 10967 10966 10964 10963 10961 10959 10957 10956 10954 10951 10950
10718 10724 10733 10742 10750 10759 10766 10772 10779 10786 10792 10798 10804 10809 10815 10821 10826 10831 10837 10842 10847 10852 10856 10859 10863 10865 10869 10875 10879 10881 10885 10889 10892 10894 10896 10899 10902 10905 10910 10913 10915 10917 10918 10920 10923 10929 10933 10935 10937 10942 10945 10945 10946 10946 10946 10946 10947 10949 10950 10952 10953 10954 10956 10957 10958 10960 10961 10961 10961 10961 10962 10963 10964 10964 10965 10964 10962 10960 10958 10955 10952 10950 10949 10946 10944
10699 10707 10717 10726 10734 10742 10750 10757 10764 10771 10778 10784 10790 10796 10802 10808 10814 10819 10824 10829 10835 10840 10844 10849 10853 10856 10861 10866 10869 10871 10875 10879 10881 10884 10888 10891 10893 10896 10901 10904 10907 10909 10911 10912 10916 10924 10930 10933 10938 10942 10944 10944 10945 10946 10946 10946 10946 10945 10945 10946 10947 10948 10949 10950 10951 10953 10954 10955 10955 10956 10958 10959 10961 10964 10965 10963 10959 10956 10954 10951 10947 10945 10944 10942 10938
10682 10690 10700 10710 10718 10725 10733 10741 10749 10756 10763 10770 10776 10782 10789 10795 10801 10806 10811 10817 10822 10827 10832 10838 10842 10847 10853 10857 10858 10861 10865 10869 10871 10874 10879 10882 10884 10887 10891 10895 10899 10901 10902 10903 10908 10916 10923 10926 10929 10932 10935 10939 10943 10945 10947 10948 10945 10942 10940 10940 10941 10942 10942 10941 10943 10945 10946 10946 10948 10951 10953 10957 10961 10963 10959 10951 10946 10945 10947 10947 10944 10939 10936 10935 10934
10666 10674 10682 10692 10701 10708 10716 10725 10733 10741 10748 10755 10762 10768 10775 10781 10787 10793 10799 10804 10809 10814 10819 10825 10830 10836 10842 10846 10848 10851 10855 10859 10862 10865 10869 10872 10876 10878 10881 10885 10889 10892 10893 10895 10899 10904 10909 10912 10914 10916 10922 10929 10933 10935 10936 10936 10935 10934 10933 10932 10933 10934 10933 10933 10934 10936 10937 10938 10941 10944 10948 10953 10955 10951 10942 10935 10934 10938 10942 10941 10938 10932 10927 10926 10926
10650 10657 10665 10673 10682 10691 10699 10707 10716 10724 10732 10740 10747 10754 10761 10768 10774 10780 10786 10792 10797 10801 10807 10812 10817 10823 10830 10834 10836 10840 10845 10849 10852 10855 10858 10861 10866 10869 10871 10874 10878 10881 10884 10887 10889 10893 10897 10901 10904 10908 10913 10918 10920 10920 10919 10918 10918 10920 10921 10922 10923 10925 10925 10925 10926 10927 10928 10930 10933 10936 10940 10943 10941 10936 10932 10930 10930 10933 10934 10932 10928 10925 10921 10917 10915
10632 10640 10647 10654 10662 10671 10681 10690 10698 10706 10715 10724 10732 10740 10747 10754 10760 10767 10773 10779 10784 10789 10794 10799 10804 10811 10817 10822 10824 10829 10834 10838 10841 10844 10847 10851 10855 10859 10861 10863 10866 10870 10874 10877 10880 10884 10887 10890 10894 10898 10902 10904 10906 10906 10906 10906 10905 10907 10909 10912 10914 10916 10916 10917 10918 10918 10919 10922 10925 10927 10929 10930 10929 10927 10926 10925 10923 10924 10924 10922 10919 10917 10914 10911 10908
10613 10622 10630 10637 10644 10652 10662 10672 10680 10689 10698 10707 10716 10724 10732 10739 10746 10753 10759 10766 10771 10777 10782 10786 10791 10797 10804 10808 10812 10817 10822 10826 10829 10833 10837 10840 10843 10847 10849 10852 10856 10859 10863 10867 10870 10874 10877 10880 10882 10885 10889 10891 10893 10894 10895 10895 10895 10897 10899 10902 10905 10906 10907 10908 10909 10909 10911 10914 10916 10918 10918 10918 10917 10917 10916 10915 10915 10916 10916 10915 10913 10912 10908 10904 10900
10593 10602 10610 10617 10625 10633 10642 10652 10662 10671 10681 10690 10699 10708 10716 10724 10731 10739 10746 10753 10758 10764 10769 10774 10779 10784 10790 10795 10799 10804 10809 10814 10818 10822 10826 10829 10832 10835 10838 10842 10845 10849 10852 10856 10860 10864 10867 10870 10872 10874 10877 10879 10882 10883 10884 10885 10886 10887 10889 10892 10894 10896 10897 10898 10899 10901 10902 10904 10907 10908 10909 10908 10907 10906 10905 10904 10905 10907 10907 10906 10906 10906 10905 10901 10896
10571 10580 10589 10597 10605 10614 10623 10632 10642 10653 10664 10673 10682 10691 10701 10709 10717 10724 10732 10739 10745 10750 10756 10761 10766 10772 10777 10782 10786 10791 10797 10802 10806 10811 10815 10819 10822 10824 10827 10831 10834 10838 10842 10845 10849 10852 10856 10858 10861 10863 10865 10867 10870 10871 10873 10874 10876 10877 10879 10881 10884 10886 10887 10888 10889 10891 10893 10894 10896 10898 10899 10899 10898 10896 10894 10894 10895 10896 10897 10897 10896 10898 10899 10898 10892
10551 10559 10569 10579 10588 10596 10605 10614 10624 10635 10645 10655 10664 10674 10684 10694 10702 10710 10718 10725 10731 10737 10742 10748 10754 10759 10764 10769 10774 10779 10784 10789 10794 10798 10804 10808 10810 10813 10816 10820 10823 10827 10831 10834 10837 10841 10844 10847 10849 10851 10854 10856 10858 10860 10862 10863 10865 10867 10869 10871 10873 10875 10876 10877 10879 10881 10882 10883 10885 10887 10888 10889 10888 10886 10885 10885 10885 10886 10887 10886 10886 10888 10888 10886 10883
10533 10541 10551 10562 10571 10579 10588 10597 10607 10617 10626 10636 10646 10656 10666 10676 10686 10695 10703 10711 10717 10723 10729 10734 10740 10746 10751 10756 10761 10767 10772 10777 10781 10786 10791 10795 10799 10802 10805 10808 10811 10815 10819 10823 10826 10829 10832 10835 10837 10840 10842 10844 10847 10849 10851 10853 10855 10857 10859 10861 10863 10865 10866 10867 10868 10870 10871 10872 10874 10875 10877 10877 10878 10877 10876 10875 10874 10875 10875 10876 10877 10878 10876 10872 10871
10516 10524 10533 10543 10553 10562 10570 10580 10589 10599 10608 10618 10628 10639 10649 10658 10668 10678 10688 10696 10702 10709 10715 10721 10727 10733 10738 10743 10749 10754 10759 10764 10769 10773 10777 10782 10787 10790 10793 10796 10800 10803 10807 10810 10814 10817 10820 10823 10826 10828 10831 10833 10836 10838 10840 10842 10844 10846 10849 10851 10852 10854 10855 10856 10857 10858 10860 10861 10862 10864 10865 10866 10866 10867 10866 10864 10863 10863 10863 10864 10866 10868 10866 10862 10860
10500 10508 10517 10527 10536 10544 10553 10562 10571 10581 10590 10600 10611 10621 10631 10640 10650 10661 10671 10680 10687 10694 10701 10707 10713 10719 10725 10730 10736 10741 10746 10751 10756 10760 10765 10769 10773 10777 10781 10785 10788 10792 10795 10798 10801 10804 10808 10811 10815 10817 10820 10822 10825 10827 10829 10831 10833 10835 10837 10839 10841 10843 10844 10845 10846 10847 10848 10849 10850 10852 10854 10855 10855 10855 10855 10854 10852 10851 10851 10852 10853 10855 10855 10853 10850
10486 10493 10502 10511 10519 10527 10535 10543 10553 10563 10573 10583 10594 10604 10614 10623 10632 10643 10653 10663 10671 10679 10686 10693 10699 10705 10711 10716 10722 10727 10733 10738 10743 10748 10752 10757 10761 10765 10769 10774 10777 10780 10784 10786 10789 10792 10796 10799 10803 10805 10808 10811 10813 10815 10818 10820 10822 10824 10826 10828 10830 10831 10833 10834 10835 10836 10837 10838 10839 10840 10841 10842 10842 10842 10842 10842 10842 10841 10841 10841 10841 10841 10841 10841 10841